Wind_Speed
24 24 25 28 30 33 36 34 37 38 32 31 29 26 27 31 32 27 24 30 34 37 29 28 26 28 23 25 27 28 31 23 18 16 19 24 20 23 30 32 25 35 24 34 18 10 17 20 32 38 43 47 42 38
27 27 26 28 29 34 34 36 38 37 35 32 29 25 26 29 29 26 25 28 30 35 32 29 19 20 27 25 25 24 28 29 27 28 24 22 25 38 37 51 38 25 27 33 31 38 47 41 40 42 31 36 34 38
28 28 28 28 29 33 34 35 35 39 35 32 29 27 27 26 27 30 25 24 29 37 38 19 22 23 20 18 17 27 24 27 27 22 28 30 34 35 36 39 37 37 31 32 41 47 41 39 38 33 30 34 37 37
30 30 30 31 34 34 33 35 36 38 39 31 29 28 28 28 27 25 22 23 27 35 43 32 25 19 16 14 13 16 24 21 22 25 29 38 43 34 41 45 51 48 42 40 43 40 38 34 35 32 33 33 36 32
36 34 34 35 35 35 32 35 34 40 39 31 25 27 28 28 24 20 20 22 26 28 39 44 28 15 7 14 17 18 23 27 27 29 31 36 40 40 44 48 53 40 39 38 43 37 34 39 37 35 36 36 35 34
37 36 34 33 34 34 33 38 34 37 36 29 23 23 28 26 24 24 22 23 26 30 33 39 27 12 18 18 15 23 24 26 28 30 35 35 34 33 33 43 42 37 30 33 33 31 33 36 36 33 29 29 28 26
43 39 38 34 33 40 43 36 39 37 33 27 22 24 24 24 23 23 27 30 29 28 26 21 28 25 19 21 27 25 26 24 23 23 30 26 30 29 35 41 29 31 27 28 27 30 31 26 29 31 29 28 30 31
45 43 38 42 40 41 40 36 39 34 29 26 22 23 22 24 23 24 25 28 30 26 18 15 25 25 19 29 33 34 33 30 23 22 26 29 26 19 25 21 22 22 24 25 22 25 28 31 32 36 36 37 36 36
48 44 51 41 44 42 40 36 37 31 29 25 24 23 22 23 23 22 23 27 28 20 12 22 26 23 20 31 30 31 32 28 23 20 22 20 21 16 20 22 20 20 22 25 22 24 28 35 41 39 40 38 36 38
48 45 44 45 42 42 41 39 35 31 29 26 24 24 26 20 21 24 25 24 18 14 20 17 15 21 24 27 30 33 18 15 19 17 15 16 23 20 17 17 18 19 23 27 35 40 43 45 47 44 41 38 38 38
49 48 45 43 40 40 44 35 33 30 28 25 27 23 24 23 23 21 11 8 8 10 15 12 15 20 25 26 28 17 16 12 10 11 11 12 20 17 16 15 20 27 34 39 40 43 47 45 45 44 42 39 37 39
55 47 38 44 44 42 47 30 29 29 27 25 26 25 23 21 12 9 7 8 9 10 12 16 21 23 26 23 21 13 12 8 10 12 9 15 16 16 17 21 24 37 43 48 46 48 50 45 43 44 43 42 41 38
58 51 43 55 45 47 36 28 29 29 24 25 23 22 11 10 13 11 12 12 10 15 20 22 24 25 23 16 16 13 8 13 14 10 13 20 22 23 24 37 45 52 51 48 49 51 49 48 44 43 46 46 45 41
49 49 47 48 47 39 35 30 28 28 23 22 20 13 10 11 11 16 14 15 17 18 20 22 23 23 28 20 11 8 10 11 8 11 22 22 27 29 36 52 56 52 50 54 54 52 49 47 47 47 49 48 42 37
47 50 43 43 41 33 30 28 32 27 23 21 12 10 15 17 18 15 16 16 17 18 20 24 27 24 18 10 7 7 7 8 9 18 28 36 43 53 58 57 56 55 54 51 49 47 47 46 47 48 43 37 33 32
47 43 51 41 38 37 31 33 32 26 27 25 22 18 17 17 21 19 18 18 18 18 20 21 18 10 8 6 9 12 12 22 27 30 39 52 57 61 63 59 54 49 46 44 42 41 40 41 39 33 28 27 21 19
49 52 45 39 43 35 32 32 30 30 22 22 28 26 26 24 23 21 20 20 20 19 18 14 7 6 7 9 10 13 22 27 40 49 51 57 57 52 47 45 42 38 35 35 34 34 31 25 22 24 25 19 20 16
52 46 37 41 39 34 34 32 32 29 32 35 30 23 20 21 23 26 23 23 21 18 17 15 16 19 12 17 25 28 33 39 43 50 49 43 41 39 37 36 34 33 31 28 25 19 15 16 18 20 20 16 14 14
51 43 43 46 42 41 39 34 36 30 32 30 26 22 23 24 24 23 23 22 21 19 18 18 12 17 25 25 27 31 35 41 43 37 33 31 32 32 32 31 28 23 17 13 10 11 12 12 10 11 10 11 14 15
40 40 37 37 36 41 39 26 30 35 30 26 22 21 23 23 21 23 23 22 21 22 21 23 25 23 21 21 26 31 34 31 30 29 28 27 27 29 26 22 18 12 10 12 13 11 8 7 6 6 8 8 7 9
40 35 33 35 38 38 35 22 21 20 23 25 19 16 17 17 19 20 22 23 24 28 26 23 20 17 19 23 25 26 23 21 20 20 24 26 25 24 19 17 14 13 13 12 11 10 9 10 10 7 5 7 13 18
40 40 45 46 39 36 38 27 22 22 19 18 16 17 17 16 17 19 21 24 27 25 22 20 15 16 17 17 18 18 17 14 14 16 17 19 20 20 18 16 15 13 12 11 10 10 9 9 7 6 6 11 14 16
45 45 48 51 36 30 24 32 31 29 24 24 21 17 17 18 19 19 21 24 24 18 19 17 13 16 13 13 11 13 15 16 16 15 15 14 14 16 15 13 12 10 10 10 12 13 11 9 5 6 12 15 15 14
43 46 47 35 27 18 21 25 25 27 28 27 23 18 15 16 17 19 24 24 19 18 16 14 14 13 12 13 13 16 19 17 14 14 14 12 9 11 10 10 8 8 9 12 15 15 13 10 6 4 6 8 7 7
39 29 29 32 27 26 26 23 24 24 23 18 17 14 11 13 15 20 25 21 18 18 16 14 14 11 10 11 13 15 15 11 10 11 10 7 6 7 8 7 8 9 10 11 15 15 12 8 5 4 5 8 10 10
21 14 16 19 27 27 26 26 23 24 21 16 13 12 13 14 16 12 17 12 12 12 12 13 12 11 10 11 9 9 8 6 6 7 8 8 7 7 8 8 10 10 13 15 15 12 10 8 6 7 7 8 9 9
19 16 27 25 22 24 23 20 16 15 16 15 17 15 11 8 9 13 10 9 9 8 12 11 11 10 9 7 6 5 4 3 3 5 6 7 9 9 9 9 10 12 13 13 13 11 8 6 7 10 11 11 10 11
24 23 16 19 22 18 18 17 17 14 14 15 16 14 8 8 9 10 10 10 9 12 12 11 10 10 7 4 2 3 4 4 4 5 7 8 9 9 9 9 9 11 12 12 11 10 9 8 5 5 9 10 12 14
20 16 16 18 18 22 20 17 15 15 15 14 14 15 18 20 19 17 18 18 17 15 13 13 11 10 8 5 2 4 6 7 7 7 7 8 8 8 9 8 8 10 11 10 9 9 9 10 10 11 13 14 14 16
19 18 19 18 19 20 18 14 14 15 16 17 17 19 21 22 22 21 21 20 17 14 16 15 13 12 10 7 6 7 8 9 9 9 10 10 11 11 11 11 11 11 11 11 12 13 15 15 15 16 18 20 20 19
23 17 18 17 18 16 15 13 13 13 12 12 13 15 17 20 18 16 16 14 14 15 16 14 14 14 13 10 8 8 9 10 11 11 11 11 11 12 12 12 13 12 12 13 16 17 18 19 20 20 20 21 21 20
20 19 17 16 16 15 15 13 12 12 10 9 7 7 7 8 10 10 10 11 12 15 14 14 15 14 13 11 10 10 10 11 12 12 12 12 12 12 11 12 13 15 16 17 17 18 19 19 19 19 19 19 19 19
16 16 17 16 14 13 11 11 11 10 9 8 9 8 8 9 10 9 9 9 10 12 14 15 15 14 13 13 13 14 14 14 15 15 14 13 13 13 14 14 15 16 17 18 19 19 20 20 19 19 19 19 20 20
Wind_Direction
295 299 306 311 317 322 326 326 329 330 330 326 323 318 317 318 320 324 321 316 316 314 331 330 328 325 316 319 312 320 314 324 320 293 286 287 283 284 293 289 275 288 293 287 287 256 278 304 305 298 301 306 309 305
290 295 301 306 312 317 318 324 332 335 328 323 316 311 313 316 317 318 319 315 313 310 318 331 337 320 315 322 310 305 296 304 284 280 276 284 272 287 281 286 294 268 275 283 273 277 298 310 310 314 315 311 306 302
285 290 294 299 303 310 315 321 327 332 326 320 311 309 313 314 315 313 320 317 313 309 314 341 330 315 312 307 300 304 310 307 290 293 296 285 276 282 283 284 288 289 295 281 292 305 308 312 313 313 317 306 304 300
280 284 290 294 298 303 311 317 320 322 326 318 310 309 311 312 312 313 318 317 309 310 305 326 334 330 311 301 316 303 318 322 304 286 273 273 273 278 278 282 287 290 291 299 299 312 315 306 314 315 308 312 316 304
275 279 285 291 297 295 308 310 317 320 316 313 306 308 310 310 308 312 313 310 308 305 305 312 333 337 326 331 328 325 319 310 303 282 272 272 276 278 283 284 283 293 300 292 300 315 314 305 314 317 313 316 315 311
273 276 279 287 291 302 304 299 307 306 306 305 302 305 307 305 305 308 306 309 306 304 305 310 332 342 339 335 337 324 316 310 297 282 277 277 285 277 272 283 297 299 311 315 314 316 305 310 314 315 310 312 310 309
272 273 277 283 289 293 296 299 300 303 303 296 298 300 304 299 301 303 304 306 307 306 311 311 316 338 332 333 333 333 332 325 308 277 279 288 291 291 281 281 319 314 309 306 302 306 309 319 317 318 314 308 310 304
268 266 267 277 284 288 292 291 296 299 296 289 292 295 301 295 293 298 296 298 302 302 294 284 299 316 323 333 331 330 327 327 318 298 289 288 296 280 279 328 323 307 292 294 312 319 313 316 324 321 313 305 303 302
262 263 270 270 279 283 287 289 294 292 283 280 287 292 295 292 294 293 293 289 290 281 271 274 296 313 321 331 328 333 333 325 315 288 288 291 286 268 313 306 313 312 307 304 308 319 317 319 321 320 319 308 302 305
260 259 263 274 273 279 277 286 286 287 278 280 288 292 295 302 294 291 291 289 279 258 255 268 306 301 316 322 328 332 317 311 292 300 290 273 290 307 300 298 300 305 327 333 328 321 320 315 316 316 319 313 304 303
256 255 264 262 268 269 269 273 278 271 269 277 284 285 289 294 288 286 262 243 257 250 261 263 306 307 315 315 319 320 302 300 277 292 270 277 290 287 291 296 310 326 335 326 317 314 315 315 314 312 313 312 306 304
246 250 253 262 261 269 266 258 260 261 263 274 281 287 289 283 261 226 225 231 243 256 245 279 303 307 314 317 316 310 282 263 254 277 272 278 275 270 279 292 306 318 319 313 314 315 315 317 315 311 309 311 310 302
243 254 256 253 246 256 253 246 248 252 262 273 280 287 275 240 223 217 219 234 237 262 283 291 299 309 308 314 297 289 254 250 275 259 266 263 268 270 298 312 311 317 316 314 312 313 315 320 316 312 311 312 308 305
237 246 242 256 251 248 239 234 242 248 255 263 270 254 239 226 218 226 253 265 266 276 286 296 301 295 298 300 279 251 261 268 257 259 271 281 289 297 301 308 311 311 313 313 313 313 316 316 314 316 314 311 308 310
233 246 244 249 248 229 226 230 239 243 245 246 245 236 238 232 233 242 257 263 271 282 293 302 302 295 285 265 256 261 256 247 253 279 295 302 307 308 310 310 310 308 309 308 309 312 314 315 318 317 315 314 312 305
238 248 249 240 236 220 217 226 232 236 237 236 231 239 252 246 242 245 261 267 276 286 297 300 299 271 262 239 240 248 258 273 288 291 299 302 304 308 310 310 310 310 310 311 311 315 318 320 322 322 330 326 318 313
240 245 247 229 221 210 216 223 225 230 235 234 253 267 252 252 249 248 257 267 271 281 286 292 258 266 255 251 252 260 277 292 298 302 307 309 310 311 311 310 311 311 311 311 317 320 323 330 330 347 354 2 13 22
243 246 230 218 206 203 207 215 218 223 234 245 255 253 247 250 242 245 256 259 265 274 282 273 273 258 248 263 283 289 297 304 306 309 313 317 317 316 318 318 318 314 313 316 319 329 350 359 8 9 14 18 8 28
240 233 215 206 196 197 202 211 216 232 242 250 246 250 250 249 248 241 245 255 261 272 275 275 261 263 282 294 299 303 309 313 317 324 334 336 332 329 325 325 327 329 332 343 358 18 18 9 15 24 43 72 93 103
225 215 199 190 195 199 202 214 226 231 245 250 251 248 247 246 244 242 246 252 258 264 261 262 279 293 291 300 302 311 317 320 325 333 343 349 350 344 342 345 353 12 40 48 38 32 13 2 11 45 73 87 97 103
201 188 185 191 197 205 206 216 219 228 233 239 242 239 245 245 240 240 244 248 251 259 272 280 287 280 290 302 311 313 318 325 337 346 347 352 359 2 13 24 38 54 45 39 29 27 15 7 5 8 46 97 108 115
184 172 184 192 198 210 209 214 220 228 234 239 243 252 255 244 243 241 244 250 259 271 274 280 270 276 290 301 303 306 311 322 332 342 348 354 3 14 24 30 35 39 41 42 30 19 14 11 14 35 68 80 80 78
171 182 189 190 199 207 220 222 232 240 243 251 255 252 249 244 239 244 247 258 269 264 270 258 262 283 286 293 301 304 312 314 316 318 334 346 359 9 15 24 28 29 30 22 11 4 1 358 13 78 84 67 60 58
186 183 182 195 202 205 216 219 223 236 241 244 247 245 239 234 244 252 255 268 267 262 260 247 274 273 283 290 296 301 303 309 315 319 320 325 337 356 8 10 12 15 15 14 6 2 356 354 356 28 77 93 90 85
167 182 197 198 211 217 224 227 231 230 232 234 235 223 227 238 246 259 270 272 267 263 249 255 272 260 275 288 292 300 306 314 326 337 342 331 357 9 4 360 359 356 355 352 353 353 349 351 5 44 78 64 54 54
199 189 189 205 214 220 225 225 226 228 229 226 222 221 234 245 256 258 269 271 250 239 245 270 257 258 267 284 291 295 298 307 342 353 5 15 13 11 7 0 0 359 354 352 353 349 349 349 9 39 55 64 41 24
177 186 203 209 204 207 212 213 215 207 210 214 221 222 238 242 252 254 256 238 216 253 274 258 244 244 253 267 282 305 318 312 7 8 2 3 3 2 354 348 348 351 354 353 350 345 346 10 34 33 18 11 6 354
201 208 216 212 211 209 208 207 211 210 214 218 224 230 235 221 237 252 218 220 264 280 269 238 227 223 226 238 276 335 348 337 329 338 342 337 329 326 328 337 346 348 344 339 340 339 336 333 343 6 1 350 344 344
208 207 213 208 205 208 213 215 217 225 235 243 254 257 252 256 255 250 255 265 271 272 249 226 220 216 216 215 274 336 343 341 344 337 325 316 312 309 307 313 319 332 334 337 339 347 353 353 350 343 331 326 322 320
218 220 220 214 209 210 219 228 234 241 248 254 258 260 257 254 254 257 262 262 260 249 227 221 217 217 218 231 273 314 325 326 321 313 305 301 299 297 298 301 302 305 312 319 325 327 325 323 320 320 315 313 314 314
221 218 210 210 213 213 216 224 233 244 249 254 261 263 262 257 255 254 248 243 238 225 215 215 216 217 220 236 274 295 305 310 311 311 308 308 304 301 301 302 303 308 320 325 321 317 315 315 314 313 312 312 314 314
206 208 207 205 205 204 212 223 230 229 234 245 254 259 252 241 235 234 234 234 221 213 212 215 215 222 232 253 269 282 297 307 311 310 305 303 303 303 307 311 313 315 315 315 317 319 319 319 319 318 318 319 320 320
196 195 196 198 198 205 214 218 219 233 240 246 240 238 241 242 243 245 237 227 217 211 211 214 219 231 244 256 267 276 285 293 298 298 296 294 293 294 298 302 307 311 314 316 318 319 320 320 320 320 321 322 321 321
Height
3158 3157 3155 3153 3151 3148 3145 3141 3138 3134 3130 3126 3122 3119 3115 3111 3108 3107 3103 3095 3091 3084 3089 3088 3084 3078 3073 3072 3067 3065 3060 3057 3054 3054 3051 3048 3043 3040 3035 3031 3031 3028 3029 3019 3016 3011 3001 2997 2997 2995 2988 2981 2977 2971
3151 3149 3148 3147 3145 3142 3139 3136 3132 3129 3125 3122 3118 3114 3110 3107 3103 3101 3099 3093 3086 3080 3083 3082 3077 3072 3068 3067 3061 3059 3056 3052 3050 3047 3046 3042 3038 3034 3031 3020 3023 3018 3020 3015 3012 2999 2993 2987 2987 2982 2979 2973 2969 2964
3142 3141 3140 3139 3137 3135 3133 3130 3127 3124 3120 3116 3113 3110 3106 3101 3099 3094 3093 3089 3082 3074 3072 3079 3075 3071 3065 3061 3057 3052 3051 3046 3042 3042 3038 3034 3031 3027 3021 3011 3008 3008 3010 3004 2999 2984 2986 2980 2979 2977 2973 2966 2960 2956
3132 3132 3131 3131 3129 3127 3125 3123 3121 3118 3113 3109 3107 3104 3100 3095 3092 3089 3088 3084 3079 3071 3060 3066 3068 3062 3058 3054 3051 3048 3044 3040 3037 3034 3030 3025 3022 3018 3010 3006 3000 3001 3000 2993 2985 2979 2974 2971 2970 2966 2961 2958 2951 2947
3122 3122 3122 3122 3120 3118 3118 3115 3113 3110 3106 3102 3099 3097 3094 3089 3084 3083 3082 3080 3075 3071 3060 3053 3060 3056 3051 3049 3046 3041 3037 3032 3027 3023 3019 3016 3013 3011 3003 2998 2982 2991 2989 2986 2976 2976 2971 2960 2959 2958 2952 2947 2944 2940
3112 3112 3112 3111 3112 3111 3109 3107 3104 3101 3099 3096 3093 3089 3087 3083 3078 3076 3076 3075 3070 3065 3056 3048 3051 3048 3046 3043 3040 3037 3032 3025 3020 3014 3009 3005 3005 3003 2996 2986 2979 2983 2984 2979 2971 2968 2964 2959 2954 2950 2945 2942 2937 2933
3101 3103 3103 3102 3101 3101 3100 3098 3096 3093 3090 3089 3086 3083 3080 3078 3074 3072 3069 3064 3062 3059 3055 3047 3043 3042 3040 3037 3033 3029 3025 3018 3011 3007 3001 3000 2997 2996 2989 2982 2977 2980 2978 2973 2968 2963 2958 2953 2947 2944 2940 2935 2932 2928
3088 3091 3090 3091 3090 3090 3090 3088 3087 3084 3082 3081 3079 3077 3073 3072 3068 3066 3063 3059 3055 3053 3052 3047 3040 3039 3037 3032 3026 3020 3015 3009 3005 3000 2996 2993 2992 2988 2982 2979 2977 2973 2968 2964 2962 2959 2951 2946 2942 2937 2932 2927 2922 2918
3073 3078 3078 3078 3080 3079 3080 3078 3077 3075 3074 3072 3072 3068 3066 3065 3062 3059 3056 3053 3050 3051 3046 3041 3037 3035 3031 3027 3023 3017 3011 3004 3000 2995 2991 2990 2984 2982 2979 2974 2970 2966 2961 2957 2954 2950 2946 2940 2934 2928 2922 2917 2912 2907
3060 3063 3064 3066 3067 3069 3069 3068 3066 3066 3066 3066 3065 3062 3058 3058 3055 3053 3048 3045 3043 3041 3038 3038 3037 3033 3031 3024 3018 3013 3007 3002 2995 2991 2987 2982 2977 2977 2973 2969 2966 2962 2958 2953 2947 2940 2935 2929 2924 2917 2912 2908 2902 2897
3047 3049 3051 3054 3055 3056 3057 3056 3056 3057 3058 3058 3056 3055 3051 3048 3047 3044 3042 3040 3039 3035 3032 3031 3030 3028 3025 3021 3016 3010 3004 3000 2992 2988 2984 2977 2972 2970 2968 2965 2961 2956 2952 2949 2944 2937 2931 2922 2914 2907 2901 2897 2892 2887
3031 3035 3036 3042 3043 3044 3045 3043 3045 3048 3048 3048 3049 3047 3044 3040 3038 3038 3034 3033 3032 3030 3027 3026 3025 3022 3019 3016 3011 3006 3002 2997 2988 2983 2979 2971 2968 2964 2961 2958 2954 2950 2946 2940 2933 2925 2918 2912 2905 2896 2889 2884 2880 2874
3016 3021 3022 3025 3026 3030 3031 3034 3036 3039 3039 3039 3041 3039 3037 3032 3030 3027 3025 3024 3025 3023 3022 3020 3019 3016 3012 3009 3006 3002 2996 2988 2983 2977 2970 2965 2962 2958 2955 2951 2945 2940 2934 2928 2919 2913 2906 2899 2893 2885 2876 2872 2865 2859
3001 3007 3008 3013 3014 3016 3019 3023 3026 3030 3031 3030 3033 3031 3029 3021 3017 3017 3018 3018 3019 3016 3015 3013 3012 3011 3007 3003 2999 2995 2990 2984 2977 2971 2964 2962 2958 2955 2949 2943 2935 2928 2922 2914 2907 2900 2895 2887 2879 2873 2865 2857 2849 2844
2985 2992 2994 2997 3001 3004 3010 3014 3016 3019 3021 3023 3024 3018 3014 3013 3011 3012 3013 3013 3012 3011 3010 3007 3006 3004 3000 2996 2993 2990 2985 2977 2970 2965 2961 2957 2952 2946 2939 2931 2923 2917 2910 2903 2897 2890 2885 2877 2869 2860 2852 2844 2837 2832
2971 2974 2979 2985 2992 2995 3000 3004 3005 3009 3010 3011 3007 3005 3007 3008 3006 3006 3007 3008 3007 3005 3004 3003 3001 2997 2993 2990 2987 2983 2977 2971 2967 2961 2956 2949 2942 2934 2925 2917 2910 2904 2898 2892 2888 2882 2876 2868 2860 2852 2844 2835 2829 2825
2956 2960 2968 2974 2980 2982 2992 2995 2993 2997 3000 2993 2992 2996 2997 2999 3001 3001 3000 3001 2999 2998 2998 2996 2996 2993 2989 2983 2979 2975 2970 2967 2963 2954 2948 2941 2930 2920 2912 2905 2900 2893 2888 2884 2880 2876 2870 2864 2857 2850 2842 2834 2829 2825
2943 2951 2958 2963 2967 2976 2981 2981 2985 2986 2980 2982 2985 2990 2989 2990 2992 2993 2994 2993 2993 2991 2990 2988 2987 2984 2983 2975 2970 2969 2964 2960 2955 2947 2937 2929 2921 2912 2904 2896 2890 2885 2881 2878 2875 2871 2868 2864 2858 2852 2846 2840 2835 2830
2934 2940 2945 2950 2955 2964 2969 2970 2974 2973 2973 2974 2977 2979 2981 2983 2984 2985 2986 2986 2986 2985 2983 2980 2979 2973 2973 2969 2964 2960 2957 2951 2942 2936 2930 2922 2914 2906 2899 2892 2886 2881 2877 2875 2873 2871 2869 2866 2862 2858 2854 2849 2845 2841
2924 2930 2937 2943 2950 2957 2960 2961 2964 2966 2966 2969 2969 2971 2973 2975 2976 2976 2977 2978 2978 2977 2975 2971 2968 2968 2966 2964 2959 2954 2949 2944 2937 2931 2927 2921 2912 2904 2896 2891 2886 2882 2879 2878 2876 2874 2872 2869 2866 2863 2859 2856 2853 2851
2913 2922 2935 2941 2944 2948 2950 2950 2956 2958 2960 2962 2963 2965 2965 2966 2967 2968 2968 2968 2969 2967 2966 2965 2963 2962 2961 2957 2952 2948 2945 2940 2935 2930 2924 2918 2913 2906 2899 2894 2891 2887 2885 2882 2880 2878 2876 2873 2870 2867 2864 2862 2859 2857
2909 2916 2926 2933 2937 2940 2942 2943 2950 2952 2954 2955 2958 2958 2958 2959 2959 2960 2960 2959 2958 2959 2958 2958 2957 2957 2955 2952 2948 2944 2941 2938 2934 2930 2926 2920 2915 2910 2905 2900 2896 2893 2891 2888 2885 2883 2880 2877 2874 2872 2869 2867 2865 2865
2904 2912 2921 2927 2930 2935 2935 2939 2944 2945 2946 2947 2950 2951 2950 2950 2952 2953 2952 2951 2952 2952 2951 2951 2951 2950 2949 2946 2943 2941 2938 2934 2931 2928 2924 2920 2916 2912 2908 2904 2901 2899 2896 2893 2890 2887 2884 2881 2878 2875 2873 2873 2872 2871
2904 2909 2913 2921 2927 2928 2929 2932 2932 2936 2939 2940 2942 2943 2944 2944 2945 2944 2943 2943 2946 2946 2945 2945 2946 2944 2943 2940 2938 2936 2934 2931 2927 2924 2921 2919 2915 2912 2909 2907 2904 2902 2899 2897 2894 2891 2888 2885 2882 2880 2878 2876 2875 2875
2900 2907 2913 2915 2918 2924 2924 2923 2925 2929 2931 2934 2935 2937 2937 2938 2939 2937 2936 2937 2938 2938 2939 2940 2940 2939 2938 2936 2934 2932 2930 2927 2924 2921 2919 2917 2914 2912 2910 2908 2906 2904 2901 2899 2896 2893 2890 2888 2886 2884 2882 2881 2879 2878
2892 2895 2902 2905 2911 2916 2917 2918 2920 2923 2925 2928 2930 2931 2931 2932 2932 2931 2929 2931 2931 2932 2934 2935 2935 2934 2933 2932 2931 2929 2927 2925 2922 2920 2918 2916 2914 2912 2910 2908 2906 2904 2902 2899 2897 2894 2892 2890 2888 2886 2884 2883 2883 2882
2888 2892 2897 2900 2904 2907 2910 2913 2916 2917 2918 2921 2923 2925 2927 2927 2925 2924 2924 2925 2926 2928 2930 2930 2930 2930 2929 2929 2928 2926 2924 2922 2921 2919 2917 2915 2914 2912 2910 2908 2906 2904 2902 2899 2897 2895 2893 2891 2890 2888 2887 2886 2884 2883
2886 2891 2894 2898 2901 2904 2906 2909 2910 2912 2914 2916 2918 2919 2920 2920 2920 2921 2922 2922 2923 2924 2925 2926 2926 2926 2926 2926 2925 2924 2922 2920 2919 2917 2916 2915 2913 2911 2909 2907 2905 2903 2901 2899 2897 2896 2894 2892 2890 2889 2888 2886 2884 2882
2884 2888 2892 2894 2897 2900 2903 2905 2906 2908 2910 2912 2913 2914 2913 2914 2917 2918 2918 2918 2919 2920 2920 2921 2922 2922 2923 2923 2923 2922 2920 2919 2917 2915 2914 2913 2912 2911 2909 2907 2905 2903 2901 2899 2897 2895 2893 2892 2890 2889 2887 2885 2883 2880
2884 2887 2889 2891 2893 2896 2898 2900 2902 2904 2905 2907 2907 2907 2908 2909 2910 2911 2911 2912 2913 2913 2915 2916 2917 2918 2919 2920 2920 2919 2918 2916 2915 2914 2912 2911 2910 2909 2907 2905 2903 2902 2900 2898 2896 2894 2892 2890 2888 2886 2884 2881 2879 2876
2881 2883 2885 2888 2890 2893 2895 2897 2898 2900 2901 2901 2902 2902 2902 2902 2903 2903 2904 2906 2907 2908 2910 2911 2913 2915 2916 2916 2916 2916 2915 2914 2912 2910 2909 2908 2907 2905 2904 2902 2901 2899 2897 2895 2893 2890 2887 2885 2883 2881 2879 2876 2874 2871
2877 2880 2883 2885 2888 2891 2892 2893 2895 2897 2898 2898 2898 2899 2899 2899 2899 2900 2901 2902 2903 2904 2906 2908 2909 2911 2912 2913 2912 2912 2911 2910 2908 2907 2905 2904 2903 2902 2901 2899 2898 2896 2893 2891 2888 2886 2883 2881 2878 2876 2874 2871 2869 2866
2874 2877 2880 2883 2885 2887 2890 2892 2893 2894 2895 2895 2896 2897 2897 2898 2898 2898 2899 2899 2901 2902 2903 2904 2906 2907 2908 2908 2908 2908 2907 2905 2904 2903 2901 2900 2899 2898 2897 2896 2894 2892 2890 2887 2884 2881 2879 2876 2874 2872 2869 2867 2864 2862